Tracking 29932 objects as of 3-Dec-2024
HD Live streaming from Space Station
objects crossing your sky now

STARLINK-11110

Track STARLINK-11110 now!
10-day predictions
STARLINK-11110 is classified as:


NORAD ID: 59762
Int'l Code: 2024-091K
Perigee: 365.8 km
Apogee: 367.9 km
Inclination: 53.2 °
Period: 91.7 minutes
Semi major axis: 6737 km
RCS: Unknown
Launch date: May 14, 2024
Source: United States (US)
Launch site: AIR FORCE WESTERN TEST RANGE (AFWTR)
Your satellite tracking list
Your tracking list is empty




NASA's NSSDC Master Catalog

Two Line Element Set (TLE):
1 59762U 24091K   24337.69146107 -.00001406  00000-0 -67403-5 0  9996
2 59762  53.1541 323.5708 0001551  83.5057 276.6137 15.69703822 32952
Source of the keplerian elements: AFSPC